Location: San Gennaro Vesuviano
(40.8833°N, 14.5333°E)
Time: 22:03:43
(UTC+00:00)

Cosmos 2333 Rocket - Pass Details

Date: 22 April 2021
Orbit: 838 x 864 km, 70.8° (Epoch: 10 May)

Event Time Altitude Azimuth Distance (km) Brightness Sun altitude
Rises 19:10:48 0° 326° (NW) 3,446 6.7 -14.9°
Reaches altitude 10° 19:13:31 10° 316° (NW) 2,502 5.9 -15.3°
Maximum altitude 19:18:28 30° 257° (WSW) 1,477 3.9 -16.1°
Drops below altitude 10° 19:23:21 10° 197° (SSW) 2,474 4.5 -16.9°
Enters shadow 19:26:01 - 187° (S) 3,390 5.1 -17.3°
